Regional Weather Roundup
Issued by NWS

Home | Current Version | Previous Version | Graphics & Text | Print | Product List | Glossary On
Versions: 1 2 3 4 5 6 7 8 9 10 11 12 13 14 15 16 17 18 19 20 21 22 23 24 25 26 27 28 29 30 31 32 33 34 35 36 37 38 39 40 41 42 43 44 45 46 47 48 49 50
506
ASUS44 KJAN 240103
RWRMS

MISSISSIPPI HOURLY WEATHER ROUNDUP
NATIONAL WEATHER SERVICE JACKSON MS
800 PM CDT THU OCT 23 2014

NOTE: "FAIR: INDICATES FEW OR NO CLOUDS BELOW 12,000 FEET WITH NO
SIGNIFICANT WEATHER AND/OR OBSTRUCTIONS TO VISIBILITY.

MSZ001>002-007>008-010>013-018>021-025>028-034>036-240200-
NORTHWEST MISSISSIPPI

CITY           SKY/WX    TMP DP  RH WIND       PRES   REMARKS
CLARKSDALE     FAIR      54  50  87 N6        30.14S
CLEVELAND      FAIR      54  50  88 W5        30.14R
GREENWOOD      CLOUDY    55  52  89 CALM      30.14R
GREENVILLE     PTCLDY    55  48  77 NW5       30.13S
GRENADA          N/A    N/A N/A N/A MISG        N/A
OLIVE BRANCH   CLOUDY    52  48  87 N6        30.15R
OXFORD         FAIR      54  48  82 NW6       30.14R
TUNICA         MOCLDY    54  46  76 CALM      30.15S
$$

MSZ003>006-009-014>017-022>024-029>033-037>039-240200-
NORTHEAST MISSISSIPPI

CITY           SKY/WX    TMP DP  RH WIND       PRES   REMARKS
COLUMBUS AFB   CLOUDY    55  50  83 NE2       30.08F
CORINTH        FAIR      55  50  82 NW5       30.12S
GOLDN TRIANGLE MOCLDY    57  45  62 CALM      30.10R
STARKVILLE     FAIR      54  50  87 W5        30.12R
TUPELO         CLOUDY    56  50  80 NE9       30.09F
$$

MSZ040-058-240200-
CENTRAL MISSISSIPPI

CITY           SKY/WX    TMP DP  RH WIND       PRES   REMARKS
JACKSON INTL   CLOUDY    54  49  83 N7        30.11R
JACKSON HAWKNS MOCLDY    58  49  72 CALM      30.11F
MERIDIAN KEY   CLOUDY    57  48  72 CALM      30.09R
MERIDIAN NAS   CLOUDY    58  48  69 N5        30.09R
RAYMOND        FAIR      55  50  82 MISG      30.11F
VICKSBURG      PTCLDY    55  49  80 N5        30.13R
$$

MSZ059>079-240200-
SOUTH MISSISSIPPI

CITY           SKY/WX    TMP DP  RH WIND       PRES   REMARKS
BROOKHAVEN     FAIR      57  52  82 NW5       30.12S
COLUMBIA         N/A    N/A N/A N/A MISG        N/A
HATTIESBURG    CLOUDY    61  52  72 W5        30.09R
MCCOMB         PTCLDY    60  49  66 N7        30.09S
NATCHEZ        MOCLDY    57  50  77 CALM      30.12S
PINE BELT      CLOUDY    61  46  59 NW5       30.09R
$$

MSZ080>082-240200-
COASTAL MISSISSIPPI

CITY           SKY/WX    TMP DP  RH WIND       PRES   REMARKS
BILOXI         CLOUDY    66  55  67 CALM      30.06R
PASCAGOULA     CLOUDY    57  52  83 CALM      30.05S
GULFPORT       CLOUDY    63  54  72 CALM      30.05S
$$



USA.gov is the U.S. government's official web portal to all federal, state and local government web resources and services.